Regional Weather Roundup
Issued by NWS Burlington, VT

Current Version | Previous Version | Text Only | Print | Product List | Glossary Off
Versions: 1 2 3 4 5 6 7 8 9 10 11 12 13 14 15 16 17 18 19 20 21 22 23 24 25 26 27 28 29 30 31 32 33 34 35 36 37 38 39 40 41 42 43 44 45 46 47 48 49 50

000
ASUS41 KBTV 151910
RWRBTV
VERMONT REGIONAL WEATHER ROUNDUP
NATIONAL WEATHER SERVICE BURLINGTON VT
200 PM EST FRI DEC 15 2017

NOTE: "FAIR" INDICATES FEW OR NO CLOUDS BELOW 12,000 FEET WITH NO
SIGNIFICANT WEATHER AND/OR OBSTRUCTIONS TO VISIBILITY.

* THESE REPORTS ARE NOT UNDER NWS QUALITY CONTROL AND/OR DO NOT
  REPORT WEATHER SUCH AS PRECIPITATION AND FOG.

VTZ001>019-152000-
_____VERMONT_____


CITY           SKY/WX    TMP DP  RH WIND       PRES   REMARKS
BURLINGTON     CLOUDY    22   9  57 S13       29.92F WCI  10
MONTPELIER     CLOUDY    20   7  57 S9        29.90F WCI   9
MORRISVILLE    SUNNY     19   5  54 NW3       29.89F
ST. JOHNSBURY*   N/A     16   5  62 MISG      29.90F
LYNDONVILLE*   FAIR      16   2  54 SE3       29.89F
MIDDLEBURY*    FAIR      20  10  66 S8        29.92F WCI  10
RUTLAND*       CLOUDY    23  15  71 CALM      29.91F
SPRINGFIELD    CLOUDY    19   8  62 CALM      29.94F
HIGHGATE*      FAIR      23   8  53 S7        29.90F WCI  14
NEWPORT*       FAIR      19   2  47 S5        29.88F WCI  12
BENNINGTON     CLOUDY    22  10  60 CALM      29.90F
SUTTON*          N/A     16 N/A N/A MISG        N/A

_____LAKE CHAMPLAIN_____


CITY           SKY/WX    TMP DP  RH WIND       PRES   REMARKS
BURTON ISLAND*   N/A     27  16  63 S18         N/A  WCI  13
COLCHESTER RF*   N/A     25  18  74 S21         N/A  WCI  10
DIAMOND ISL*     N/A     23  14  68 S12         N/A  WCI  12

$$

NYZ007-026>031-035-052-083-087-152000-
_____NORTHERN NEW YORK_____


CITY           SKY/WX    TMP DP  RH WIND       PRES   REMARKS
PLATTSBURGH    CLOUDY    23  13  65 SE13      29.90F WCI  11
SARANAC LAKE   CLOUDY    18   9  68 SW13      29.77F WCI   5
MASSENA        LGT SNOW  19  13  77 CALM      29.89F
OGDENSBURG*    PTSUNNY   25  20  82 S3        29.85F HAZE
POTSDAM*       CLOUDY    23  14  68 SE6       29.85F WCI  16
WATERTOWN      CLOUDY    24  16  71 S8G18     29.85F WCI  15
FT DRUM        PTSUNNY   23  12  64 S13       29.82F WCI  11
ALBANY         CLOUDY    21   8  57 S12       29.96F WCI   9
GLENS FALLS    CLOUDY    19  10  68 SE5       29.95F WCI  12

$$
NHZ002-005-011-152000-
_____NEW HAMPSHIRE_____


CITY           SKY/WX    TMP DP  RH WIND       PRES   REMARKS
LEBANON        CLOUDY    19   7  59 CALM      29.93F
KEENE          PTSUNNY   24  19  81 CALM      29.95F
MT WASHINGTON  MOSUNNY    0  -6  78 W36G41      N/A  WCI -28
PLYMOUTH       FAIR      24   5  44 CALM      29.92F
WHITEFIELD     SUNNY     22   3  44 CALM      29.87F

$$

_____REGIONAL QUEBEC LOCATIONS_____


CITY           SKY/WX    TMP DP  RH WIND       PRES   REMARKS
MONTREAL       CLOUDY    14   3  62 N3        29.91F
QUEBEC CITY    PTSUNNY    5  -4  66 W10       29.93F WCI -10
SHERBROOKE     PTSUNNY   18   1  49 VRB2      29.87F

_____REGIONAL ONTARIO LOCATIONS_____


CITY           SKY/WX    TMP DP  RH WIND       PRES   REMARKS
OTTAWA         FLURRIES  10   5  79 NE7       29.86F WCI   0

______KEY______
VSB  - VISIBILITY IN MILES
WCI  - WIND CHILL INDEX
HX   - HEAT INDEX
$$
NNNN




USA.gov is the U.S. government's official web portal to all federal, state and local government web resources and services.